Weather History for Beckley, WV

Change the Weather History Date:

Wednesday, February 13, 2013

  Actual Average Record
Temperature  
Mean Temperature 36 °F 34 °F  
Max Temperature 41 °F 43 °F 70 °F (1932)
Min Temperature 30 °F 25 °F -12 °F (1899)
Degree Days  
Heating Degree Days 29 31  
Month to date heating degree days 408 417  
Since 1 July heating degree days 3324 3561  
Cooling Degree Days 0 0  
Month to date cooling degree days 0 0  
Year to date cooling degree days 0 0  
Moisture  
Dew Point 29 °F    
Average Humidity 68    
Maximum Humidity 92    
Minimum Humidity 44    
Precipitation  
Precipitation 0.31 in 0.09 in 1.03 in (1971)
Month to date precipitation 0.66 1.25  
Year to date precipitation 5.43 4.06  
Snow  
Snow T in - - ()
Month to date snowfall 6.3  
Since 1 September snowfall 48.7  
Snow Depth 0.00 in    
Sea Level Pressure  
Sea Level Pressure 29.72 in    
Wind  
Wind Speed 7 mph (WNW)    
Max Wind Speed 17 mph    
Max Gust Speed 23 mph    
Visibility 6 miles    
Events Rain , Snow    
T = Trace of Precipitation, MM = Missing Value Source: NWS Daily Summary

Daily Weather History Graph

Daily Weather History Graph

Search for Another Location

Airport:

Trip Planner

Search our weather history database for the weather conditions in past years. The results will help you decide how hot, cold, wet, or windy it might be!

Date:

Astronomy

Feb. 13, 2013 Rise Set
Actual Time 7:16 AM EST 6:01 PM EST
Civil Twilight 6:49 AM EST 6:28 PM EST
Nautical Twilight 6:18 AM EST 6:59 PM EST
Astronomical Twilight 5:47 AM EST 7:29 PM EST
Moon 8:49 AM EST (2/13) 9:57 PM EST (2/13)
Length of Visible Light 11h 39m
Length of Day
10h 45m
Waxing Crescent, 13% of the Moon is Illuminated
Feb 13
Waxing Crescent
Feb 17
First Quarter
Feb 25
Full
Mar 4
Last Quarter
Mar 11
New

Hourly Weather History & Observations

Time (EST) Temp. Windchill Dew Point Humidity Pressure Visibility Wind Dir Wind Speed Gust Speed Precip Events Conditions
12:51 AM 37.9 °F 35.5 °F 19.9 °F 48% 29.89 in 10.0 mi East 3.5 mph - N/A   Partly Cloudy
1:51 AM 37.0 °F 34.5 °F 23.0 °F 57% 29.87 in 10.0 mi North 3.5 mph - N/A   Overcast
2:51 AM 37.9 °F - 24.1 °F 57% 29.85 in 10.0 mi Calm Calm - N/A   Overcast
3:51 AM 39.9 °F 36.7 °F 19.9 °F 45% 29.82 in 10.0 mi SE 4.6 mph - N/A   Overcast
4:51 AM 37.0 °F - 23.0 °F 57% 29.80 in 10.0 mi Calm Calm - N/A   Overcast
5:51 AM 36.0 °F - 23.0 °F 59% 29.79 in 10.0 mi Calm Calm - N/A   Overcast
6:51 AM 39.9 °F 33.9 °F 19.9 °F 45% 29.77 in 10.0 mi SE 9.2 mph - N/A   Overcast
7:51 AM 39.9 °F 36.7 °F 19.0 °F 43% 29.73 in 10.0 mi ENE 4.6 mph - N/A   Overcast
8:51 AM 39.9 °F 33.9 °F 21.0 °F 47% 29.70 in 10.0 mi ESE 9.2 mph - N/A   Overcast
9:51 AM 39.0 °F 35.7 °F 30.0 °F 70% 29.71 in 10.0 mi SSE 4.6 mph - 0.01 in Rain Light Rain
10:51 AM 37.9 °F 28.9 °F 34.0 °F 86% 29.68 in 6.0 mi SE 16.1 mph 23.0 mph 0.01 in Rain Light Rain
10:58 AM 37.4 °F 28.9 °F 33.8 °F 87% 29.64 in 6.0 mi SE 13.8 mph 23.0 mph 0.00 in Rain Light Rain
11:07 AM 37.4 °F 29.3 °F 33.8 °F 87% 29.64 in 6.0 mi ESE 12.7 mph - 0.01 in Rain Light Rain
11:51 AM 39.0 °F 34.8 °F 36.0 °F 89% 29.67 in 7.0 mi SE 5.8 mph - 0.03 in Rain Light Rain
12:24 PM 39.2 °F 34.2 °F 35.6 °F 87% 29.61 in 4.0 mi ESE 6.9 mph - 0.02 in Rain Light Rain
12:51 PM 39.0 °F 34.8 °F 36.0 °F 89% 29.64 in 4.0 mi SSE 5.8 mph - 0.05 in Rain Rain
1:27 PM 39.2 °F 35.0 °F 35.6 °F 87% 29.58 in 6.0 mi SE 5.8 mph - 0.03 in Rain Light Rain
1:51 PM 39.9 °F 34.5 °F 36.0 °F 86% 29.60 in 9.0 mi SE 8.1 mph - 0.04 in Rain Light Rain
2:51 PM 39.9 °F - 37.0 °F 89% 29.60 in 3.0 mi Calm Calm - 0.05 in Rain Rain
3:00 PM 39.2 °F 37.0 °F 37.4 °F 93% 29.56 in 1.8 mi WSW 3.5 mph - 0.03 in Rain Heavy Rain
3:08 PM 39.2 °F 35.9 °F 37.4 °F 93% 29.56 in 2.0 mi Variable 4.6 mph - 0.06 in Rain Rain
3:17 PM 39.2 °F 32.0 °F 37.4 °F 93% 29.57 in 4.0 mi NW 11.5 mph 16.1 mph 0.08 in Rain Light Rain
3:31 PM 37.4 °F 30.3 °F 35.6 °F 93% 29.59 in 8.0 mi WNW 10.4 mph - 0.09 in Rain Light Rain
3:49 PM 33.8 °F 23.9 °F 32.0 °F 93% 29.61 in 1.8 mi WNW 15.0 mph - 0.10 in Snow Light Snow
3:51 PM 34.0 °F 24.2 °F 32.0 °F 92% 29.66 in 1.8 mi WNW 15.0 mph - 0.10 in Snow Light Snow
4:20 PM 33.8 °F 25.8 °F 30.2 °F 87% 29.64 in 1.0 mi NW 10.4 mph 18.4 mph 0.01 in Snow Light Snow
4:46 PM 33.8 °F 26.4 °F 30.2 °F 87% 29.66 in 2.5 mi NW 9.2 mph - 0.02 in Snow Light Snow
4:51 PM 33.1 °F 24.9 °F 30.9 °F 92% 29.73 in 3.0 mi WNW 10.4 mph - 0.02 in Snow Light Snow
4:59 PM 33.8 °F 25.3 °F 30.2 °F 87% 29.67 in 2.5 mi WNW 11.5 mph 18.4 mph 0.00 in Snow Light Snow
5:30 PM 32.0 °F 23.6 °F 30.2 °F 93% 29.69 in 3.0 mi NW 10.4 mph - 0.00 in Snow Light Snow
5:51 PM 32.0 °F 24.2 °F 28.9 °F 88% 29.77 in 4.0 mi NW 9.2 mph - 0.00 in Snow Light Snow
6:51 PM 30.9 °F 22.2 °F 28.9 °F 92% 29.79 in 10.0 mi WNW 10.4 mph - 0.00 in   Overcast
7:51 PM 30.9 °F 21.7 °F 28.0 °F 89% 29.83 in 9.0 mi NW 11.5 mph - 0.00 in   Overcast
8:51 PM 30.9 °F 23.5 °F 28.0 °F 89% 29.85 in 10.0 mi WNW 8.1 mph - 0.00 in   Overcast
9:44 PM 30.2 °F 23.4 °F 28.4 °F 93% 29.81 in 8.0 mi WNW 6.9 mph - 0.00 in   Overcast
9:51 PM 30.9 °F 24.3 °F 28.9 °F 92% 29.88 in 7.0 mi WNW 6.9 mph - 0.00 in   Overcast
10:51 PM 30.0 °F 22.4 °F 28.0 °F 92% 29.90 in 6.0 mi WNW 8.1 mph - 0.00 in   Overcast
11:51 PM 30.0 °F 21.1 °F 28.0 °F 92% 29.91 in 4.0 mi WNW 10.4 mph - N/A   Overcast